EW5186 Weather Reports


time (UTC)temp
C
wind
direction
speed
KPH
gust
KPH
rain 1hr
cm
rain 24hr
cm
rain mn
cm
humidity
%
barometer
mb
20260904003046 22 62 0.0 1.6 0.00 0.89 0.89 93 1013.7
20260904001524 22 62 0.0 0.0 0.00 0.89 0.89 93 1013.7
20260904000024 22 60 0.0 0.0 0.00 0.89 0.89 92 1013.2
20260903234522 22 60 0.0 0.0 0.00 0.89 0.89 92 1013.1
20260903233013 23 60 0.0 0.0 0.00 0.89 0.89 91 1013.0
20260903231512 23 60 0.0 1.6 0.00 0.89 0.89 89 1013.1
20260903230011 24 60 0.0 0.0 0.00 0.89 0.89 87 1013.0
20260903224522 25 60 0.0 1.6 0.00 0.89 0.89 86 1013.2
20260903223015 25 60 0.0 1.6 0.00 0.89 0.89 84 1013.3
20260903221510 26 149 0.0 3.2 0.00 0.89 0.89 83 1013.4
20260903220008 26 187 0.0 0.0 0.00 0.89 0.89 81 1013.2
20260903214550 27 145 0.0 4.8 0.00 0.89 0.89 80 1013.3
20260903213050 28 141 1.6 6.4 0.00 0.89 0.89 76 1013.1
20260903211533 28 127 0.0 0.0 0.00 0.89 0.89 78 1013.1
20260903210038 27 129 0.0 0.0 0.00 0.89 0.89 81 1013.1
20260903204510 27 129 0.0 0.0 0.00 0.89 0.89 80 1013.2
20260903203021 27 129 0.0 0.0 0.00 0.89 0.89 79 1013.4
20260903201550 28 102 0.0 0.0 0.00 0.89 0.89 73 1013.3
20260903200047 27 336 0.0 1.6 0.00 0.89 0.89 77 1013.4
20260903194528 27 321 0.0 3.2 0.00 0.89 0.89 76 1013.5
20260903193024 26 360 0.0 3.2 0.00 0.89 0.89 78 1013.6
20260903191506 26 322 0.0 3.2 0.00 0.89 0.89 79 1013.7
20260903190002 26 243 0.0 1.6 0.00 0.89 0.89 78 1014.0
20260903184552 26 217 0.0 3.2 0.00 0.89 0.89 80 1014.1
20260903183044 26 126 0.0 3.2 0.00 0.89 0.89 80 1014.3
20260903181523 26 337 1.6 6.4 0.00 0.89 0.89 78 1014.2
20260903180029 26 28 0.0 4.8 0.00 0.89 0.89 80 1014.4
20260903174503 26 245 0.0 3.2 0.00 0.89 0.89 79 1014.4
20260903173004 26 328 3.2 11.3 0.00 0.89 0.89 78 1014.3
20260903171549 26 353 1.6 11.3 0.00 0.89 0.89 79 1014.5
20260903170046 25 319 0.0 3.2 0.00 0.89 0.89 82 1014.4
20260903164542 24 258 0.0 3.2 0.00 0.89 0.89 83 1014.4
20260903163043 24 210 0.0 1.6 0.00 0.89 0.89 85 1014.9
20260903161548 24 229 0.0 4.8 0.00 0.89 0.89 85 1015.1
20260903160039 24 357 0.0 4.8 0.00 0.89 0.89 86 1015.2
20260903154537 23 82 0.0 4.8 0.00 0.89 0.89 86 1015.1
20260903153037 23 23 0.0 6.4 0.00 0.89 0.89 86 1015.4
20260903151533 24 184 0.0 3.2 0.00 0.89 0.89 87 1015.5
20260903150019 23 8 1.6 8.0 0.00 0.89 0.89 85 1015.4
20260903144513 23 145 0.0 8.0 0.00 0.89 0.89 88 1015.3
20260903143108 23 283 0.0 4.8 0.00 0.89 0.89 89 1015.3
20260903141553 22 132 0.0 1.6 0.00 0.89 0.89 90 1015.6
20260903140053 22 70 0.0 3.2 0.00 0.89 0.89 91 1015.6
20260903134551 22 326 0.0 4.8 0.00 0.89 0.89 91 1015.7
20260903133056 22 122 0.0 4.8 0.00 0.89 0.89 95 1015.7
20260903131604 21 162 0.0 1.6 0.00 0.89 0.89 95 1016.3
20260903130044 21 103 0.0 1.6 0.00 0.89 0.89 96 1016.2
20260903124542 20 108 0.0 1.6 0.00 0.89 0.89 96 1016.4
20260903123022 20 65 0.0 1.6 0.00 0.89 0.89 96 1016.5
20260903121530 20 82 0.0 0.0 0.00 0.89 0.89 96 1016.9
20260903120008 20 82 0.0 0.0 0.00 0.89 0.89 96 1017.0
20260903114506 20 83 0.0 0.0 0.00 0.89 0.89 96 1017.0
20260903113008 19 82 0.0 1.6 0.00 0.89 0.89 96 1017.0
20260903111504 19 83 0.0 0.0 0.00 0.89 0.89 96 1017.1
20260903110003 19 83 0.0 0.0 0.00 0.89 0.89 96 1016.9
20260903104502 19 83 0.0 1.6 0.00 0.89 0.89 96 1016.8
20260903103101 19 83 0.0 0.0 0.00 0.89 0.89 96 1016.9
20260903101603 18 83 0.0 0.0 0.00 0.89 0.89 96 1016.5
20260903100040 18 83 0.0 0.0 0.00 0.89 0.89 96 1016.3
20260903094538 18 83 0.0 0.0 0.00 0.89 0.89 96 1016.1
20260903093030 18 83 0.0 0.0 0.00 0.89 0.89 96 1016.3
20260903091529 18 83 0.0 0.0 0.00 0.89 0.89 96 1016.5
20260903090024 18 83 0.0 0.0 0.00 0.89 0.89 96 1016.6
20260903084524 18 83 0.0 0.0 0.00 0.89 0.89 96 1016.5
20260903083024 18 83 0.0 0.0 0.00 0.89 0.89 96 1016.7
20260903081520 18 82 0.0 0.0 0.00 0.89 0.89 95 1016.5
20260903080018 18 83 0.0 0.0 0.03 0.89 0.89 95 1016.9
20260903074518 18 332 0.0 0.0 0.03 0.89 0.89 95 1017.2
20260903073008 18 332 0.0 0.0 0.05 0.89 0.89 95 1017.2
20260903071506 18 332 0.0 0.0 0.30 0.89 0.89 95 1017.3
20260903070004 17 332 0.0 0.0 0.79 0.86 0.86 95 1017.3
20260903064503 17 130 0.0 3.2 0.86 0.86 0.86 94 1016.7
20260903063101 17 91 0.0 3.2 0.86 0.86 0.86 94 1017.1
20260903061605 17 86 0.0 1.6 0.66 0.66 0.66 94 1018.3
20260903060055 18 31 0.0 0.0 0.08 0.08 0.08 93 1018.6
20260903054553 18 31 0.0 0.0 0.00 0.00 0.00 92 1018.9
20260903053035 18 31 0.0 0.0 0.00 0.00 0.00 91 1019.0
20260903051533 18 31 0.0 1.6 0.00 0.00 0.00 90 1019.0
20260903050013 18 12 0.0 0.0 0.00 0.00 0.00 88 1019.4
20260903044509 18 12 0.0 1.6 0.00 0.00 0.00 88 1019.6
20260903043048 18 309 0.0 1.6 0.00 0.00 0.00 88 1019.7
20260903041546 18 249 0.0 0.0 0.00 0.00 0.00 87 1019.9
20260903040026 18 91 0.0 3.2 0.00 0.00 0.00 87 1019.7
20260903034537 18 124 0.0 6.4 0.00 0.00 0.00 86 1019.6
20260903033007 18 109 0.0 3.2 0.00 0.00 0.00 86 1019.1
20260903031507 18 64 0.0 4.8 0.00 0.00 0.00 85 1019.8
20260903030045 18 82 0.0 3.2 0.00 0.00 0.00 85 1020.0
20260903024549 18 69 0.0 3.2 0.00 0.00 0.00 84 1020.4
20260903023032 18 124 0.0 1.6 0.00 0.00 0.00 84 1020.6
20260903021532 18 78 0.0 1.6 0.00 0.00 0.00 83 1020.7
20260903020047 18 138 0.0 3.2 0.00 0.00 0.00 83 1020.9
20260903014532 18 281 0.0 6.4 0.00 0.00 0.00 82 1020.7
20260903013029 18 111 0.0 4.8 0.00 0.00 0.00 82 1020.6
20260903011530 18 89 0.0 6.4 0.00 0.00 0.00 82 1020.8
20260903010028 18 243 0.0 6.4 0.00 0.00 0.00 82 1020.9
20260903004527 18 68 0.0 0.0 0.00 0.00 0.00 82 1021.3